Change the Weather History Date:

Friday, August 9, 2013

  Actual Average (KCRP) Record (KCRP)
Temperature  
Mean Temperature 87 °F 85 °F  
Max Temperature 100 °F 95 °F 103 °F (1962)
Min Temperature 75 °F 75 °F 70 °F (1975)
Degree Days  
Heating Degree Days 0 0  
Month to date heating degree days 0  
Since 1 June heating degree days 0  
Since 1 July heating degree days 0  
Cooling Degree Days 22 20  
Month to date cooling degree days 180  
Year to date cooling degree days 2130  
Since 1 June cooling degree days 1289  
Growing Degree Days 37 (Base 50)    
Moisture  
Dew Point 73 °F    
Average Humidity 68    
Maximum Humidity 92    
Minimum Humidity 35    
Precipitation  
Precipitation 0.00 in 0.07 in 6.34 in (1980)
Month to date precipitation 0.54  
Year to date precipitation 16.96  
Snow  
Snow 0.00 in - - ()
Month to date snowfall  
Since 1 June snowfall  
Since 1 July snowfall  
Snow Depth -    
Sea Level Pressure  
Sea Level Pressure 29.91 in    
Wind  
Wind Speed 3 mph (ESE)    
Max Wind Speed 16 mph    
Max Gust Speed 24 mph    
Visibility 6 miles    
Events Rain    
T = Trace of Precipitation, MM = Missing Value Source: NWS Daily Summary

Daily Weather History Graph

Daily Weather History Graph

Search for Another Location

Airport or City:

Trip Planner

Search our weather history database for the weather conditions in past years. The results will help you decide how hot, cold, wet, or windy it might be!

Date:

Astronomy

Aug. 09, 2013 Rise Set
Actual Time 6:58 AM CDT 8:13 PM CDT
Civil Twilight 6:33 AM CDT 8:38 PM CDT
Nautical Twilight 6:03 AM CDT 9:08 PM CDT
Astronomical Twilight 5:33 AM CDT 9:38 PM CDT
Moon 9:25 AM CDT (8/9) 9:46 PM CDT (8/9)
Length of Visible Light 14h 05m
Length of Day
13h 15m
Waxing Crescent, 8% of the Moon is Illuminated
Aug 9
Waxing Crescent
Aug 14
First Quarter
Aug 20
Full
Aug 28
Last Quarter
Sep 5
New

Hourly Weather History & Observations

Time (CDT) Temp. Heat Index Dew Point Humidity Pressure Visibility Wind Dir Wind Speed Gust Speed Precip Events Conditions
12:15 AM 81.5 °F 88.5 °F 76.3 °F 84% 29.90 in 5.0 mi Calm Calm - N/A Rain Heavy Rain
12:35 AM 81.1 °F 87.8 °F 76.1 °F 85% 29.90 in 7.0 mi Calm Calm - N/A Rain Heavy Rain
12:55 AM 81.0 °F 87.1 °F 75.7 °F 84% 29.90 in 5.0 mi Calm Calm - N/A Rain Heavy Rain
1:15 AM 80.6 °F 86.4 °F 75.6 °F 85% 29.91 in 5.0 mi Calm Calm - N/A Rain Heavy Rain
1:35 AM 79.3 °F - 74.8 °F 86% 29.91 in 5.0 mi Calm Calm - N/A Rain Heavy Rain
1:55 AM 78.4 °F - 74.7 °F 88% 29.90 in 7.0 mi Calm Calm - N/A Rain Heavy Rain
2:15 AM 78.1 °F - 74.3 °F 88% 29.90 in 5.0 mi Calm Calm - N/A Rain Heavy Rain
2:35 AM 77.9 °F - 74.3 °F 89% 29.90 in 5.0 mi Calm Calm - N/A Rain Heavy Rain
2:55 AM 77.2 °F - 73.8 °F 89% 29.90 in 5.0 mi Calm Calm - N/A Rain Heavy Rain
3:15 AM 77.4 °F - 74.3 °F 90% 29.89 in 5.0 mi Calm Calm - N/A Rain Heavy Rain
3:35 AM 76.6 °F - 73.6 °F 90% 29.89 in 5.0 mi Calm Calm - N/A Rain Heavy Rain
3:55 AM 76.1 °F - 73.4 °F 91% 29.89 in 5.0 mi Calm Calm - N/A Rain Heavy Rain
4:15 AM 75.7 °F - 73.0 °F 91% 29.89 in 5.0 mi Calm Calm - N/A Rain Heavy Rain
4:35 AM 76.1 °F - 73.6 °F 92% 29.89 in 5.0 mi Calm Calm - N/A Rain Heavy Rain
4:55 AM 75.7 °F - 73.2 °F 92% 29.89 in 4.0 mi Calm Calm - N/A Rain Heavy Rain
5:15 AM 75.7 °F - 73.4 °F 92% 29.89 in 5.0 mi Calm Calm - N/A Rain Heavy Rain
5:35 AM 76.3 °F - 73.9 °F 92% 29.89 in 5.0 mi Calm Calm - N/A Rain Heavy Rain
5:55 AM 75.9 °F - 73.4 °F 92% 29.89 in 4.0 mi Calm Calm - N/A Rain Heavy Rain
6:15 AM 75.7 °F - 73.4 °F 92% 29.89 in 5.0 mi Calm Calm - N/A Rain Heavy Rain
6:35 AM 76.3 °F - 73.8 °F 92% 29.89 in 5.0 mi Calm Calm - N/A Rain Heavy Rain
6:55 AM 76.1 °F - 73.4 °F 91% 29.90 in 4.0 mi Calm Calm - N/A Rain Heavy Rain
7:15 AM 76.1 °F - 73.6 °F 92% 29.90 in 5.0 mi Calm Calm - N/A Rain Heavy Rain
7:35 AM 76.1 °F - 73.8 °F 92% 29.90 in 4.0 mi Calm Calm - N/A Rain Heavy Rain
7:55 AM 77.2 °F - 74.5 °F 91% 29.91 in 4.0 mi Calm Calm - N/A Rain Heavy Rain
8:15 AM 79.2 °F - 75.2 °F 88% 29.92 in 3.0 mi Calm Calm - N/A Rain Heavy Rain
8:35 AM 81.5 °F 88.3 °F 75.7 °F 83% 29.93 in 5.0 mi Calm Calm - N/A Rain Heavy Rain
8:55 AM 83.3 °F 91.4 °F 75.7 °F 78% 29.94 in 4.0 mi Calm Calm - N/A Rain Heavy Rain
9:15 AM 84.7 °F 92.5 °F 74.5 °F 71% 29.94 in 4.0 mi Calm Calm - N/A Rain Heavy Rain
9:35 AM 85.5 °F 93.4 °F 74.1 °F 69% 29.94 in 4.0 mi Calm Calm - N/A Rain Heavy Rain
9:55 AM 86.7 °F 93.7 °F 72.9 °F 63% 29.94 in 4.0 mi Calm Calm - N/A Rain Heavy Rain
10:15 AM 87.4 °F 93.5 °F 71.6 °F 59% 29.94 in 4.0 mi Calm Calm - N/A Rain Heavy Rain
10:35 AM 89.1 °F 95.0 °F 71.2 °F 55% 29.94 in 4.0 mi Calm Calm - N/A Rain Heavy Rain
10:55 AM 89.8 °F 96.0 °F 71.2 °F 54% 29.93 in 5.0 mi Calm Calm - N/A Rain Heavy Rain
11:15 AM 91.6 °F 96.2 °F 68.9 °F 47% 29.93 in 5.0 mi Calm Calm - N/A Rain Heavy Rain
11:35 AM 93.2 °F 98.8 °F 69.6 °F 46% 29.93 in 4.0 mi Calm Calm - N/A Rain Heavy Rain
11:55 AM 93.2 °F 98.3 °F 69.1 °F 45% 29.93 in 7.0 mi Calm Calm - N/A Rain Heavy Rain
12:15 PM 94.3 °F 99.3 °F 68.9 °F 43% 29.93 in 7.0 mi SE 5.8 mph - N/A Rain Heavy Rain
12:35 PM 96.1 °F 101.0 °F 68.0 °F 40% 29.92 in 10.0 mi Calm Calm - N/A Rain Rain
12:55 PM 95.9 °F 100.7 °F 68.0 °F 40% 29.92 in 10.0 mi Calm Calm - N/A Rain Rain
1:15 PM 97.0 °F 102.2 °F 68.2 °F 39% 29.91 in 7.0 mi Calm Calm - N/A Rain Rain
1:35 PM 98.1 °F 103.7 °F 68.5 °F 38% 29.90 in 10.0 mi East 3.5 mph - N/A Rain Heavy Rain
1:55 PM 97.7 °F 103.6 °F 68.9 °F 39% 29.90 in 10.0 mi SE 8.1 mph 11.5 mph N/A   Scattered Clouds
2:15 PM 97.9 °F 102.7 °F 67.5 °F 37% 29.89 in 10.0 mi SSE 9.2 mph - N/A   Scattered Clouds
2:35 PM 99.9 °F 105.2 °F 67.6 °F 35% 29.89 in 10.0 mi ESE 11.5 mph 17.3 mph N/A   Scattered Clouds
2:55 PM 99.1 °F 103.8 °F 67.3 °F 35% 29.89 in 10.0 mi ESE 10.4 mph 20.7 mph N/A   Clear
3:15 PM 99.1 °F 105.2 °F 68.4 °F 37% 29.88 in 10.0 mi ESE 10.4 mph 18.4 mph N/A   Clear
3:35 PM 99.0 °F 105.5 °F 69.6 °F 38% 29.87 in 10.0 mi SE 12.7 mph 18.4 mph N/A   Clear
3:55 PM 98.1 °F 104.4 °F 69.4 °F 39% 29.87 in 10.0 mi ESE 12.7 mph 20.7 mph N/A   Clear
4:15 PM 98.4 °F 105.1 °F 69.8 °F 39% 29.87 in 7.0 mi East 11.5 mph 21.9 mph N/A   Clear
4:35 PM 97.3 °F 104.9 °F 70.9 °F 42% 29.87 in 10.0 mi East 13.8 mph 20.7 mph N/A   Clear
4:55 PM 97.2 °F 104.5 °F 70.9 °F 42% 29.87 in 10.0 mi East 12.7 mph - N/A   Clear
5:15 PM 96.6 °F 104.0 °F 70.9 °F 43% 29.87 in 7.0 mi SE 11.5 mph 23.0 mph N/A   Clear
5:35 PM 95.5 °F 105.1 °F 72.9 °F 48% 29.87 in 7.0 mi East 13.8 mph 24.2 mph N/A   Clear
5:55 PM 94.6 °F 104.4 °F 73.2 °F 50% 29.87 in 5.0 mi ESE 15.0 mph - N/A Rain Rain
6:15 PM 93.2 °F 102.4 °F 73.0 °F 52% 29.87 in 7.0 mi East 12.7 mph 20.7 mph N/A Rain Rain
6:35 PM 92.5 °F 102.6 °F 73.9 °F 55% 29.87 in 5.0 mi East 15.0 mph 21.9 mph N/A Rain Heavy Rain
6:55 PM 91.9 °F 102.6 °F 74.7 °F 57% 29.87 in 4.0 mi ESE 13.8 mph - N/A Rain Heavy Rain
7:15 PM 90.7 °F 100.1 °F 73.9 °F 58% 29.87 in 5.0 mi ESE 11.5 mph 18.4 mph N/A Rain Heavy Rain
7:35 PM 90.3 °F 101.0 °F 75.0 °F 61% 29.87 in 4.0 mi ESE 13.8 mph 17.3 mph N/A Rain Heavy Rain
7:55 PM 89.1 °F 98.5 °F 74.7 °F 62% 29.88 in 5.0 mi ESE 16.1 mph - N/A Rain Heavy Rain
8:15 PM 88.0 °F 97.5 °F 75.0 °F 65% 29.89 in 4.0 mi SE 16.1 mph - N/A Rain Heavy Rain
8:35 PM 86.9 °F 96.4 °F 75.2 °F 68% 29.89 in 7.0 mi ESE 12.7 mph - N/A Rain Heavy Rain
8:55 PM 86.4 °F 94.6 °F 74.3 °F 67% 29.91 in 5.0 mi SE 12.7 mph 17.3 mph N/A Rain Heavy Rain
9:15 PM 86.0 °F 94.2 °F 74.3 °F 68% 29.92 in 7.0 mi ESE 13.8 mph - N/A Rain Heavy Rain
9:35 PM 85.5 °F 95.0 °F 75.9 °F 73% 29.92 in 5.0 mi SE 12.7 mph - N/A Rain Heavy Rain
9:55 PM 85.1 °F 94.9 °F 76.3 °F 75% 29.94 in 7.0 mi Calm Calm - N/A Rain Heavy Rain
10:15 PM 84.7 °F 94.4 °F 76.3 °F 76% 29.95 in 7.0 mi SE 4.6 mph - N/A Rain Rain
10:35 PM 84.6 °F 94.3 °F 76.5 °F 77% 29.95 in 7.0 mi Calm Calm - N/A Rain Heavy Rain
10:55 PM 84.6 °F 94.7 °F 77.0 °F 78% 29.96 in 7.0 mi Calm Calm - N/A Rain Rain
11:15 PM 84.2 °F 94.1 °F 77.2 °F 79% 29.97 in 7.0 mi Calm Calm - N/A Rain Heavy Rain
11:35 PM 84.2 °F 94.5 °F 77.4 °F 80% 29.97 in 7.0 mi Calm Calm - N/A Rain Heavy Rain
11:55 PM 83.7 °F 93.8 °F 77.5 °F 82% 29.97 in 7.0 mi Calm Calm - N/A Rain Heavy Rain